Glasgow, KY

1:09 AM CDT on September 20, 2017 (GMT -0500)
Glasgow Municipal

Weather History for KGLW - February, 2013

Change the Weather History Date:

Sunday, February 24, 2013

  Actual Average Record
Temperature  
Mean Temperature 36 °F -  
Max Temperature 50 °F 52 °F 78 °F (2017)
Min Temperature 23 °F 32 °F 8 °F (1967)
Degree Days  
Heating Degree Days 28    
Moisture  
Dew Point 25 °F    
Average Humidity 66    
Maximum Humidity 100    
Minimum Humidity 34    
Precipitation  
Precipitation 0.00 in - - ()
Sea Level Pressure  
Sea Level Pressure 30.08 in    
Wind  
Wind Speed 1 mph (NE)    
Max Wind Speed 7 mph    
Max Gust Speed -    
Visibility 9 miles    
Events      
Averages and records for this station are not official NWS values.
T = Trace of Precipitation, MM = Missing Value Source: NWS Daily Summary

Daily Weather History Graph

Daily Weather History Graph

Search for Another Location

Airport or City:

Trip Planner

Search our weather history database for the weather conditions in past years. The results will help you decide how hot, cold, wet, or windy it might be!

Date:

Astronomy

Feb. 24, 2013 Rise Set
Actual Time 6:21 AM CST 5:33 PM CST
Civil Twilight 5:54 AM CST 5:59 PM CST
Nautical Twilight 5:24 AM CST 6:29 PM CST
Astronomical Twilight 4:54 AM CST 6:59 PM CST
Moon 4:43 PM CST (2/24) 5:17 AM CST (2/24)
Length of Visible Light 12h 04m
Length of Day
11h 12m
Waxing Gibbous, 99% of the Moon is Illuminated
Feb 24
Waxing Gibbous
Feb 25
Full
Mar 4
Last Quarter
Mar 11
New
Mar 19
First Quarter

Hourly Weather History & Observations

Time (CST) Temp. Windchill Dew Point Humidity Pressure Visibility Wind Dir Wind Speed Gust Speed Precip Events Conditions
12:35 AM 28.4 °F - 24.1 °F 84% 30.01 in 10.0 mi Calm Calm - N/A   Clear
12:55 AM 28.0 °F - 23.5 °F 83% 29.99 in 10.0 mi Calm Calm - N/A   Clear
1:15 AM 27.0 °F - 23.5 °F 87% 30.01 in 10.0 mi Calm Calm - N/A   Clear
1:35 AM 27.3 °F - 24.1 °F 88% 30.01 in 10.0 mi Calm Calm - N/A   Clear
1:55 AM 27.7 °F - 24.1 °F 86% 30.01 in 10.0 mi Calm Calm - N/A   Clear
2:15 AM 26.1 °F - 23.0 °F 88% 30.02 in 10.0 mi Calm Calm - N/A   Clear
2:35 AM 26.1 °F - 24.1 °F 92% 30.02 in 10.0 mi Calm Calm - N/A   Clear
2:55 AM 25.5 °F - 24.3 °F 95% 30.02 in 7.0 mi Calm Calm - N/A   Clear
3:15 AM 25.5 °F - 25.3 °F 99% 30.03 in 7.0 mi Calm Calm - N/A   Clear
3:35 AM 25.7 °F - 25.7 °F 100% 30.04 in 7.0 mi Calm Calm - N/A   Clear
3:55 AM 25.0 °F - 25.0 °F 100% 30.04 in 7.0 mi Calm Calm - N/A   Clear
4:15 AM 25.7 °F - 25.5 °F 99% 30.04 in 10.0 mi Calm Calm - N/A   Clear
4:35 AM 25.9 °F - 25.5 °F 99% 30.05 in 7.0 mi Calm Calm - N/A   Clear
4:55 AM 26.1 °F - 26.1 °F 100% 30.06 in 7.0 mi Calm Calm - N/A   Clear
5:15 AM 24.8 °F - 24.8 °F 100% 30.06 in 7.0 mi Calm Calm - N/A   Clear
5:35 AM - - - N/A% 30.07 in 5.0 mi Calm Calm - N/A   Clear
5:55 AM - - - N/A% 30.07 in 7.0 mi Calm Calm - N/A   Clear
6:15 AM 24.3 °F - 24.3 °F 100% 30.08 in 5.0 mi Calm Calm - N/A   Clear
6:35 AM 23.0 °F - 23.0 °F 100% 30.08 in 5.0 mi Calm Calm - N/A   Clear
6:55 AM 23.7 °F - 23.7 °F 100% 30.09 in 5.0 mi Calm Calm - N/A   Clear
7:15 AM 25.0 °F - 25.0 °F 100% 30.10 in 5.0 mi Calm Calm - N/A   Clear
7:35 AM 28.2 °F - 26.8 °F 94% 30.10 in 5.0 mi Calm Calm - N/A   Clear
7:55 AM 31.1 °F 27.7 °F 26.4 °F 83% 30.12 in 10.0 mi NNE 3.5 mph - N/A   Clear
8:15 AM 32.4 °F 29.1 °F 25.3 °F 75% 30.12 in 10.0 mi NE 3.5 mph - N/A   Clear
8:35 AM 33.4 °F 30.4 °F 25.7 °F 73% 30.13 in 10.0 mi NE 3.5 mph - N/A   Clear
8:55 AM 34.5 °F 31.6 °F 25.2 °F 69% 30.13 in 10.0 mi NE 3.5 mph - N/A   Clear
9:15 AM 35.2 °F - 25.0 °F 66% 30.14 in 10.0 mi Calm Calm - N/A   Clear
9:35 AM 36.3 °F - 24.4 °F 62% 30.14 in 10.0 mi Calm Calm - N/A   Clear
9:55 AM 37.4 °F - 24.4 °F 60% 30.15 in 10.0 mi Calm Calm - N/A   Clear
10:15 AM 38.8 °F 34.6 °F 24.3 °F 56% 30.15 in 10.0 mi North 5.8 mph - N/A   Clear
10:35 AM 39.6 °F - 25.2 °F 56% 30.15 in 10.0 mi Calm Calm - N/A   Clear
10:55 AM 41.0 °F 37.1 °F 25.2 °F 53% 30.15 in 10.0 mi ENE 5.8 mph - N/A   Clear
11:15 AM 41.9 °F 40.0 °F 24.8 °F 51% 30.15 in 10.0 mi NNE 3.5 mph - N/A   Clear
11:35 AM 43.3 °F 39.9 °F 24.4 °F 47% 30.14 in 10.0 mi NE 5.8 mph - N/A   Clear
11:55 AM 43.9 °F 41.3 °F 24.4 °F 46% 30.12 in 10.0 mi NE 4.6 mph - N/A   Clear
12:15 PM 45.1 °F 42.0 °F 25.3 °F 46% 30.11 in 10.0 mi NE 5.8 mph - N/A   Clear
12:35 PM 46.2 °F - 25.0 °F 43% 30.11 in 10.0 mi Calm Calm - N/A   Clear
12:55 PM 46.9 °F - 25.3 °F 43% 30.10 in 10.0 mi ESE 6.9 mph - N/A   Clear
1:15 PM 47.5 °F - 25.0 °F 41% 30.10 in 10.0 mi ENE 5.8 mph - N/A   Clear
1:35 PM 48.0 °F - 24.1 °F 39% 30.09 in 10.0 mi NE 3.5 mph - N/A   Clear
1:55 PM 48.6 °F - 23.7 °F 38% 30.09 in 10.0 mi North 4.6 mph - N/A   Clear
2:15 PM 49.3 °F - 24.1 °F 37% 30.10 in 10.0 mi WNW 4.6 mph - N/A   Clear
2:35 PM 49.8 °F - 23.5 °F 36% 30.09 in 10.0 mi East 3.5 mph - N/A   Clear
2:55 PM 49.8 °F - 23.2 °F 35% 30.08 in 10.0 mi NE 4.6 mph - N/A   Clear
3:15 PM 50.5 °F - 24.1 °F 36% 30.08 in 10.0 mi North 3.5 mph - N/A   Clear
3:35 PM 50.2 °F - 23.2 °F 35% 30.08 in 10.0 mi NNE 3.5 mph - N/A   Clear
3:55 PM 50.0 °F - 22.8 °F 34% 30.08 in 10.0 mi East 6.9 mph - N/A   Clear
4:15 PM 49.6 °F - 22.6 °F 35% 30.08 in 10.0 mi East 3.5 mph - N/A   Clear
4:35 PM 49.3 °F - 23.2 °F 36% 30.08 in 10.0 mi East 4.6 mph - N/A   Clear
4:55 PM 48.4 °F - 23.4 °F 37% 30.08 in 10.0 mi East 5.8 mph - N/A   Clear
5:15 PM 46.6 °F - 24.1 °F 41% 30.08 in 10.0 mi East 3.5 mph - N/A   Clear
5:35 PM 45.3 °F 44.0 °F 23.4 °F 42% 30.08 in 10.0 mi East 3.5 mph - N/A   Clear
5:55 PM 44.2 °F - 23.4 °F 44% 30.08 in 10.0 mi Calm Calm - N/A   Clear
6:15 PM 41.9 °F - 24.8 °F 51% 30.09 in 10.0 mi Calm Calm - N/A   Clear
6:35 PM 39.7 °F - 25.3 °F 56% 30.09 in 10.0 mi Calm Calm - N/A   Clear
6:55 PM 36.1 °F 33.5 °F 26.6 °F 68% 30.10 in 10.0 mi NNE 3.5 mph - N/A   Clear
7:15 PM 37.9 °F 35.5 °F 25.7 °F 61% 30.10 in 10.0 mi NNE 3.5 mph - N/A   Clear
7:35 PM 37.4 °F - 25.3 °F 62% 30.10 in 10.0 mi Calm Calm - N/A   Clear
7:55 PM 34.9 °F - 25.5 °F 69% 30.10 in 10.0 mi Calm Calm - N/A   Clear
8:15 PM 34.9 °F - 25.5 °F 69% 30.10 in 10.0 mi Calm Calm - N/A   Clear
8:35 PM 35.1 °F 32.2 °F 25.5 °F 68% 30.09 in 10.0 mi NE 3.5 mph - N/A   Clear
8:55 PM 36.0 °F - 25.3 °F 65% 30.09 in 10.0 mi Calm Calm - N/A   Clear
9:15 PM 35.8 °F - 25.3 °F 66% 30.09 in 10.0 mi Calm Calm - N/A   Clear
9:35 PM 36.3 °F 33.7 °F 25.2 °F 64% 30.08 in 10.0 mi NE 3.5 mph - N/A   Clear
9:55 PM 36.0 °F 33.3 °F 25.2 °F 65% 30.08 in 10.0 mi NE 3.5 mph - N/A   Clear
10:15 PM 35.4 °F 31.5 °F 25.2 °F 66% 30.08 in 10.0 mi ENE 4.6 mph - N/A   Clear
10:35 PM 33.8 °F - 24.8 °F 70% 30.08 in 10.0 mi Calm Calm - N/A   Clear
10:55 PM 34.0 °F - 24.6 °F 69% 30.07 in 10.0 mi Calm Calm - N/A   Clear
11:15 PM 33.1 °F - 24.6 °F 71% 30.07 in 10.0 mi Calm Calm - N/A   Clear
11:35 PM 33.6 °F 30.6 °F 24.8 °F 70% 30.06 in 10.0 mi NE 3.5 mph - N/A   Clear
11:55 PM 34.0 °F 31.0 °F 24.8 °F 69% 30.05 in 10.0 mi NE 3.5 mph - N/A   Clear